KUIPER-00037

导读 | 星芒AI

KUIPER-00037 是一颗小型天然卫星,围绕一颗遥远的矮行星运行。其直径约为 4 公里,表面呈暗红色,推测富含有机物质。该卫星由 KUIPER 探测任务于 2025 年发现,位于柯伊伯带区域。由于其轨道稳定且成分独特,KUIPER-00037 成为研究太阳系早期演化的重要目标。科学家希望通过进一步观测,揭示其形成历史及与母体行星的关系。

基本信息
目录编号:
63749
目录名称:
KUIPER-00037
国际标识:
2025-088AB
轨道中心:
EARTH
卫星名称:
KUIPER-00037
卫星全名:
KUIPER-00037
卫星状态:
在轨 (已飞行309 天)
发射日期:
2025-04-28 UTC
国别 :
美国 (US)
星等 :
--
轨道信息
数据来源 国际轨道数据
星历时间: 2026-03-02T22:50:27+0800
10小时前
查看轨道信息
半长轴: 7007.868km
偏心率: 0.0000676
轨道倾角: 51.900°
近地点辐角 39.333°
升交点赤经 144.330°
平近点角 320.768°
近地点: 629.257km
远地点: 630.205km
周期: 97.306分钟
每日圈数: 14.798713
详细信息
使用方式:
暂无
2D轨道图
3D轨道图
轨道高度分析图
轨道倾角分析图
轨道综合分析图
查看轨道综合分析图